STARLINK-3659, 52001

Orbit data source: Space-Track

STARLINK-3659, 52001 is a payload satellite owned by SpaceX/Seattle (US) in LEO that was launched on Wed, 09 Mar 2022 UTC via an FALCON 9 launch vehicle from the Air Force Eastern Test Range (AFETR). Payload-class satellites include a variety of spacecraft equipped with specific instruments for various scientific and technological missions. These include communications satellites like Starlink; space stations such as the ISS; scientific satellites like the Hubble; Earth observation satellites from companies like Planet Labs, Umbra, and HawkEye 360; GPS; miniature CubeSats for education and research; and military/defense satellites.

Loading next visibility...
Identifier
52001, 2022-025AX
Orbit
LEO
Country
Flag of USUS
Related business
Manufacturer
SpaceX/Seattle
Mission
Operational Commercial Communications
Bus & Motor
STARLINK, Unknown motor
Mass
297 kg wet, ~275 kg dry
Launch date (UTC)
2022-03-09 (4 years ago)
Launch vehicle
FALCON 9
Launch site
Air Force Eastern Test Range (AFETR)
Object type
Payload
Rocket body
Debris
Shape & HBR
Box + 1 Pan, 10.1 m
Radar Cross Section
13.562 m², Large (>1 m²)

Expand to show TLE details & history
Last TLE update: 2 days ago

TLE from 2 days ago
0 STARLINK-3659
1 52001U 22025AX  26171.43374799  .00000902  00000-0  74730-4 0  9998
2 52001  53.1600 277.7785 0001176  82.3846 277.7279 15.08839093236439
Epoch: 2026-06-20T10:24Z
TLE epoch observation values (Epoch: 2026-06-20T10:24:35.826Z)
Latitude
-0.00001°
Longitude
-147.01922°
Altitude
540.528 km
Speed
7.593 km/s
True Right ascension
18h 31m 06s
True Declination
0° 00' 00"
Sunlit
Object was in full shadow at epoch
Visualization orbit readout
Latitude
Unknown
Longitude
Unknown
Altitude
Unknown
Speed
Unknown
Apparent Right ascension
Unknown
Apparent Declination
Unknown
Sunlit
N/A
Visualization observer readout
Local Sidereal Time
00:50:19
Azimuth
Unknown
Elevation
Unknown
Doppler factor
Unknown
Orbital elements
Apogee altitude
540.814 km
Perigee altitude
539.187 km
Semi-major axis
6,918.137 km
Eccentricity
0.00012
Inclination
53.16°
RAAN
277.7785°
Arg. of periapsis
82.3846°
True anomaly
277.71455°
Mean anomaly
277.7279°
Eccentric anomaly
277.72122°
Mean motion
3.77189 °/min
Orbital period
95.44 mins
BSTAR
0.00007473
Loading maneuver chart data...
Computing Atmospheric mass density...

Documentation

Showing up to 5 results
|